TITAN 3C TRANSTAGE R/B, 9855

Orbit data source: Space-Track

TITAN 3C TRANSTAGE R/B, 9855 is space debris in GEO originally from a launch on Sun, 06 Feb 1977 UTC launched from the Air Force Eastern Test Range (AFETR). Debris objects in space refer to the collection of defunct objects orbiting the Earth. Examples of debris include non-operational satellites, rocket bodies, and fragments generated from explosions, collisions, or faulty payload assembly.

Loading next visibility...
Identifier
9855, 1977-007C
Orbit
GEO
Country
Flag of USUS
Related business
Manufacturer
Martin Marietta
Mission
Spacecraft
Bus & Motor
TRANSTAGE, Unknown motor
Mass
~1,950 kg wet, ~1,950 kg dry
Launch date (UTC)
1977-02-06 (49 years ago)
Launch vehicle
Unknown
Launch site
Air Force Eastern Test Range (AFETR)
Object type
Payload
Rocket body
Debris
Shape & HBR
Cyl + 2 Nozzle, 2.3 m
Radar Cross Section
14.974 m²

Expand to show TLE details & history
Last TLE update: 2 days ago

TLE from 2 days ago
0 TITAN 3C TRANSTAGE R/B
1 09855U 77007C   25260.14610563  .00000074  00000-0  00000-0 0  9990
2 09855   4.1029 272.4472 0015791  34.9141 324.9366  1.00234773 22620
Epoch: 2025-09-17T03:30Z
TLE epoch observation values (Epoch: 2025-09-17T03:30:23.526Z)
Latitude
-0.00003°
Longitude
-136.72195°
Altitude
35,742.111 km
Speed
3.078 km/s
True Right ascension
18h 08m 48s
True Declination
0° 00' 00"
Sunlit
Object was in daylight at epoch
Visualization orbit readout
Latitude
Unknown
Longitude
Unknown
Altitude
Unknown
Speed
Unknown
Apparent Right ascension
Unknown
Apparent Declination
Unknown
Sunlit
N/A
Visualization observer readout
Local Sidereal Time
14:44:32
Azimuth
Unknown
Elevation
Unknown
Doppler factor
Unknown
Orbital elements
Apogee altitude
35,864.636 km
Perigee altitude
35,731.436 km
Semi-major axis
42,176.173 km
Eccentricity
0.00158
Inclination
4.1029°
RAAN
272.4472°
Arg. of periapsis
34.9141°
True anomaly
324.83248°
Mean anomaly
324.9366°
Eccentric anomaly
324.88456°
Mean motion
0.25058 °/min
Orbital period
1,436.68 mins
BSTAR
0
Loading maneuver chart data...
Computing Atmospheric mass density...
Loading historical data...
Loading historical data...
Loading historical data...
Loading historical data...
Loading historical data...
Loading historical data...
Loading historical data...
Other satellites on launch #7 in the year 1977 (1977-02-06 UTC)

Documentation

Showing up to 5 results
|